[[{"header":{"parameterUnit":"m.s-1","parameterCategory":1,"la1":30.2991,"la2":30.254,"lo1":-89.0895,"lo2":-89.0444,"dy":0.0017,"dx":0.0017,"nx":28,"ny":28,"refTime":"2024-04-11T09:00:00:Z","depth":0,"parameterNumber":2,"parameterNumberName":"U-component_of_WINDS"},"data":[0,0,0,0,0,0,0,0,0,0,0,0,0,0,0,0,0,0,0,0,0,0,0,0,0,0,0,0,0,0,0,0,0,0,0,0,0,0,0,0,0,0,0,0,0,0,0,0,0,0,0,0,0,0,0,0,0,0,4.3781,4.3783,0,4.3968,4.3971,4.3973,4.3955,4.3952,4.3949,4.3947,4.4145,4.4153,4.4161,0,0,0,0,0,0,0,0,0,0,0,0,0,4.3415,4.3421,4.3781,4.3783,4.3785,4.3968,4.3971,4.3973,4.3956,4.3952,4.3949,4.3945,4.4143,4.4152,4.4162,0,0,0,0,0,0,0,0,0,0,0,0,0,4.3585,4.3424,4.378,4.3799,4.3802,4.3968,4.3971,4.3974,4.3957,4.3952,4.3948,4.3944,4.414,4.4151,4.4163,4.4324,0,0,4.42,4.4205,0,0,0,0,0,0,0,0,4.3576,4.3599,4.3794,4.3798,4.3802,4.3934,4.3914,4.4092,4.3958,4.3898,4.3947,4.3942,4.4079,4.4096,4.4141,4.4334,4.4342,4.4201,4.4208,4.4213,4.4217,0,0,0,0,0,0,0,4.3564,4.3591,4.3855,4.3796,4.3802,4.38,4.3819,4.3948,4.4011,4.3903,4.3902,4.3924,4.408,4.4129,4.4145,4.4345,4.42,4.4211,4.4218,4.4223,4.4682,4.4687,0,0,0,0,0,0,4.3547,4.3581,4.3849,4.3861,4.3675,4.381,4.3832,4.3896,4.4009,4.4022,4.3928,4.3923,4.4111,4.4131,4.4152,4.435,4.4213,4.4224,4.4231,4.4677,4.4683,4.4689,0,0,0,0,0,0,4.3539,4.3571,4.3842,4.3721,4.3755,4.3821,4.3893,4.3902,4.3951,4.4028,4.404,4.3965,4.4108,4.4135,4.4282,4.4356,4.423,4.4241,4.4672,4.4679,4.4686,4.4746,0,0,0,0,0,0,4.3528,4.3568,4.3628,4.3722,4.3761,4.3966,4.3898,4.3909,4.3971,4.3966,4.4067,4.4079,4.4107,4.4264,4.4294,4.4371,4.425,4.4665,4.4675,4.4684,4.4738,4.4754,4.4769,0,0,0,0,0,4.3515,4.3639,4.3631,4.3664,4.3838,4.397,4.3993,4.4021,4.3976,4.4039,4.4089,4.4076,4.4343,4.4279,4.4312,4.4394,4.4661,4.4672,4.4683,4.473,4.4751,4.4769,0,0,0,0,0,0,4.3554,4.3651,4.3644,4.3801,4.3877,4.3967,4.4047,4.4041,4.4134,4.4125,4.4157,4.418,4.4328,4.4376,4.4303,4.4557,4.4496,4.4515,4.4521,4.4541,4.4557,4.4543,4.426,0,0,0,0,0,4.358,4.3678,4.3758,4.3889,4.3928,4.3981,4.4039,4.4054,4.4135,4.4168,4.4229,4.431,4.4412,4.4479,4.4578,4.4744,4.4767,4.4817,4.4832,4.4845,4.4861,4.4955,4.4978,4.4726,4.4726,4.4726,0,0,4.3637,4.3702,4.3762,4.3899,4.3959,4.4062,4.4008,4.4118,4.4196,4.4185,4.4327,4.4375,4.4468,4.4625,4.4698,4.467,4.4936,4.4859,4.4869,4.4878,4.4969,4.4992,4.5014,4.4734,4.4732,4.4731,0,0,4.3792,4.385,4.3966,4.4028,4.412,4.4155,4.4182,4.4274,4.4304,4.4446,4.4441,4.4535,4.471,4.4777,4.4834,4.5015,4.5007,4.5046,4.5129,4.522,4.524,4.5257,4.5324,4.5347,4.5062,4.5062,4.5062,0,4.3851,4.4003,4.4027,4.4139,4.42,4.4193,4.4313,4.4372,4.4493,4.4536,4.4502,4.4723,4.4785,4.4959,4.5003,4.5048,4.5083,4.5036,4.5234,4.5253,4.527,4.5333,4.5358,4.5066,4.5066,4.5065,4.5065,0,4.4073,4.4178,4.4261,4.4376,4.4446,4.4561,4.4605,4.4674,4.4682,4.4721,4.4868,4.4942,4.5055,4.5098,4.5108,4.5274,4.5254,4.5227,4.5166,4.5297,4.5358,4.5383,4.5072,4.5071,4.507,4.5068,0,0,4.4258,4.4384,4.4414,4.4467,4.4568,4.4652,4.4767,4.4877,4.4936,4.502,4.5119,4.5268,4.5243,4.5308,4.5326,4.5405,4.5546,4.5369,4.5372,4.5401,4.5736,4.5757,4.5785,4.5541,4.5546,4.555,4.5729,0,4.4425,4.4627,4.4652,4.4833,4.4932,4.4928,4.5029,4.5103,4.5143,4.5235,4.5279,4.5384,4.5344,4.5383,4.5461,4.5512,4.5614,4.55,4.5636,4.5641,4.5614,4.5816,4.5838,4.6004,4.5753,4.5757,4.576,0,4.4647,4.4734,4.4924,4.5013,4.5056,4.5146,4.5249,4.5336,4.5421,4.5444,4.5517,4.5524,4.5646,4.558,4.575,4.5671,4.5729,4.5762,4.577,4.5785,4.5709,4.5838,4.6057,4.6083,4.5797,4.5794,4.5791,0,4.4765,4.4931,4.5067,4.5112,4.5218,4.5281,4.5329,4.541,4.5474,4.5565,4.5608,4.5712,4.577,4.5852,4.5888,4.5836,4.6057,4.5993,4.6082,4.6081,4.613,4.6127,4.6363,4.6164,4.6164,4.6164,4.6163,0,4.495,4.5067,4.5121,4.5205,4.5337,4.5365,4.5496,4.5541,4.5613,4.5707,4.571,4.5799,4.5841,4.5937,4.5966,4.6104,4.613,4.6154,4.616,4.6154,4.6152,4.6194,4.6184,4.617,4.6169,4.6167,4.6166,0,4.5105,4.5146,4.5294,4.5381,4.5406,4.55,4.5576,4.5659,4.5697,4.5816,4.5846,4.5907,4.602,4.6064,4.6203,4.6223,4.6382,4.6379,4.6353,4.6355,4.6442,4.6434,4.6715,4.6754,4.6528,4.653,4.6532,0,4.5221,4.5311,4.5408,4.547,4.5519,4.5619,4.5685,4.5717,4.5785,4.5889,4.596,4.6072,4.6164,4.6345,4.6404,4.651,4.6511,4.6602,4.6527,4.6519,4.6514,4.6509,4.6519,4.6616,4.6619,4.662,4.6622,0,4.5423,4.5439,4.5531,4.5632,4.571,4.5791,4.5871,4.5922,4.5967,4.6044,4.6158,4.6229,4.637,4.6483,4.6592,4.6644,4.6642,4.6645,4.6671,4.6667,4.6648,4.6661,4.6392,4.6639,4.6637,4.6636,4.6635,4.6634,4.5563,4.5643,4.5724,4.5828,4.589,4.5965,4.6046,4.6094,4.619,4.6305,4.6319,4.6443,4.6527,4.6674,4.673,4.6829,4.6805,4.6843,4.6853,4.6863,4.6869,4.6631,4.6849,4.6849,4.6848,4.6848,4.6848,0,4.5767,4.5818,4.5913,4.6023,4.6106,4.6093,4.6181,4.6251,4.6359,4.6437,4.6527,4.6659,4.6768,4.6835,4.6945,4.7012,4.7014,4.704,4.7036,4.7048,4.6884,4.685,4.7036,4.7036,4.7036,4.7036,4.7036,4.7036,4.5882,4.6017,4.6043,4.6209,4.6261,4.638,4.6431,4.65,4.6563,4.671,4.68,4.6841,4.6916,4.7031,4.7132,4.7149,4.719,4.7218,4.7234,4.7079,4.706,4.7041,4.701,4.7227,4.7227,4.7391,4.7392,4.7393]},{"header":{"parameterUnit":"m.s-1","parameterCategory":1,"la1":30.2991,"la2":30.254,"lo1":-89.0895,"lo2":-89.0444,"dy":0.0017,"dx":0.0017,"nx":28,"ny":28,"refTime":"2024-04-11T09:00:00:Z","depth":0,"parameterNumber":3,"parameterNumberName":"V-component_of_WINDS"},"data":[0,0,0,0,0,0,0,0,0,0,0,0,0,0,0,0,0,0,0,0,0,0,0,0,0,0,0,0,0,0,0,0,0,0,0,0,0,0,0,0,0,0,0,0,0,0,0,0,0,0,0,0,0,0,0,0,0,0,-1.8252,-1.8252,0,-1.8251,-1.8251,-1.8251,-1.8229,-1.8228,-1.8228,-1.8227,-1.8227,-1.8227,-1.8228,0,0,0,0,0,0,0,0,0,0,0,0,0,-1.8235,-1.8235,-1.8252,-1.8252,-1.8252,-1.8251,-1.8251,-1.8251,-1.8229,-1.8228,-1.8228,-1.8227,-1.8227,-1.8227,-1.8228,0,0,0,0,0,0,0,0,0,0,0,0,0,-1.8239,-1.8235,-1.8252,-1.8241,-1.824,-1.8251,-1.8251,-1.8251,-1.8229,-1.8228,-1.8227,-1.8227,-1.8226,-1.8227,-1.8228,-1.825,0,0,-1.823,-1.8231,0,0,0,0,0,0,0,0,-1.8239,-1.824,-1.8242,-1.8241,-1.824,-1.8239,-1.8245,-1.8251,-1.8229,-1.8233,-1.8227,-1.8226,-1.8232,-1.8232,-1.8234,-1.825,-1.825,-1.823,-1.8231,-1.8231,-1.8232,0,0,0,0,0,0,0,-1.8238,-1.824,-1.8251,-1.8242,-1.8241,-1.8236,-1.8236,-1.8246,-1.8237,-1.8233,-1.8231,-1.8231,-1.8231,-1.8233,-1.8234,-1.825,-1.823,-1.8231,-1.8232,-1.8232,-1.8285,-1.8286,0,0,0,0,0,0,-1.824,-1.8239,-1.8252,-1.8251,-1.8237,-1.8237,-1.8237,-1.824,-1.8237,-1.8236,-1.8232,-1.823,-1.8232,-1.8233,-1.8233,-1.8259,-1.8231,-1.8232,-1.8232,-1.8284,-1.8285,-1.8286,0,0,0,0,0,0,-1.8239,-1.8241,-1.8252,-1.8245,-1.8246,-1.8238,-1.8243,-1.8241,-1.8243,-1.8237,-1.8235,-1.8236,-1.8231,-1.8232,-1.8246,-1.8259,-1.8232,-1.8233,-1.8283,-1.8284,-1.8285,-1.8311,0,0,0,0,0,0,-1.8239,-1.8241,-1.8249,-1.8245,-1.8246,-1.8264,-1.8243,-1.8241,-1.8244,-1.8242,-1.824,-1.8238,-1.8231,-1.8245,-1.8247,-1.8259,-1.8234,-1.8282,-1.8283,-1.8285,-1.8309,-1.8313,-1.8317,0,0,0,0,0,-1.8238,-1.8256,-1.825,-1.8251,-1.8256,-1.8265,-1.8266,-1.8256,-1.8245,-1.8254,-1.825,-1.8238,-1.8257,-1.8247,-1.8249,-1.8262,-1.8281,-1.8283,-1.8285,-1.8307,-1.8312,-1.8316,0,0,0,0,0,0,-1.8262,-1.8256,-1.8248,-1.8265,-1.8266,-1.8261,-1.8271,-1.8262,-1.8266,-1.8263,-1.8252,-1.8252,-1.8267,-1.8266,-1.8254,-1.8283,-1.8267,-1.827,-1.8283,-1.8288,-1.8292,-1.8292,-1.8234,0,0,0,0,0,-1.8269,-1.8276,-1.8271,-1.8286,-1.8287,-1.8279,-1.8283,-1.8275,-1.8276,-1.8276,-1.8273,-1.8273,-1.8279,-1.8284,-1.8289,-1.8309,-1.8308,-1.8319,-1.8322,-1.8325,-1.8328,-1.8338,-1.8343,-1.8293,-1.8293,-1.8293,0,0,-1.8284,-1.8281,-1.8287,-1.8291,-1.8291,-1.8299,-1.8279,-1.8289,-1.8295,-1.8277,-1.829,-1.8288,-1.8288,-1.8305,-1.8312,-1.8304,-1.8342,-1.8328,-1.8331,-1.8331,-1.8341,-1.8346,-1.835,-1.8294,-1.8294,-1.8294,0,0,-1.8315,-1.8314,-1.8327,-1.8327,-1.8327,-1.8321,-1.8325,-1.8321,-1.8319,-1.8332,-1.8319,-1.8326,-1.8337,-1.8337,-1.8339,-1.8371,-1.8361,-1.8373,-1.8393,-1.8403,-1.8407,-1.8411,-1.8422,-1.8426,-1.8375,-1.8375,-1.8375,0,-1.8334,-1.8345,-1.8335,-1.8345,-1.8348,-1.8332,-1.8345,-1.8346,-1.8347,-1.8349,-1.834,-1.8353,-1.8352,-1.8369,-1.8377,-1.8379,-1.8382,-1.8373,-1.8407,-1.8411,-1.8414,-1.8425,-1.8429,-1.8377,-1.8377,-1.8376,-1.8376,0,-1.8368,-1.8376,-1.8387,-1.8389,-1.8392,-1.8404,-1.8396,-1.8401,-1.8393,-1.8389,-1.8402,-1.8401,-1.8405,-1.8409,-1.8402,-1.8425,-1.842,-1.8409,-1.8393,-1.842,-1.843,-1.8434,-1.8379,-1.8378,-1.8378,-1.8378,0,0,-1.8414,-1.841,-1.8414,-1.8415,-1.8413,-1.842,-1.8431,-1.8435,-1.844,-1.8441,-1.845,-1.846,-1.845,-1.8452,-1.8445,-1.8454,-1.848,-1.8442,-1.8442,-1.8449,-1.8505,-1.8513,-1.8518,-1.8473,-1.8474,-1.8474,-1.8505,0,-1.8445,-1.8463,-1.8455,-1.8474,-1.8482,-1.8467,-1.8477,-1.8477,-1.8474,-1.848,-1.8476,-1.8483,-1.8469,-1.847,-1.8479,-1.8475,-1.8491,-1.8472,-1.8482,-1.8482,-1.8482,-1.8523,-1.8532,-1.8561,-1.8509,-1.851,-1.851,0,-1.8483,-1.8486,-1.8506,-1.8503,-1.8506,-1.8515,-1.8519,-1.8524,-1.8524,-1.8521,-1.8524,-1.8514,-1.8525,-1.8509,-1.8524,-1.8512,-1.8515,-1.8514,-1.8515,-1.8516,-1.8498,-1.8525,-1.857,-1.8575,-1.8516,-1.8516,-1.8515,0,-1.8514,-1.8524,-1.8537,-1.8538,-1.8535,-1.8542,-1.8541,-1.854,-1.8543,-1.8546,-1.8548,-1.8553,-1.8555,-1.8559,-1.8552,-1.8541,-1.8568,-1.8551,-1.8565,-1.8566,-1.8572,-1.8572,-1.8618,-1.8574,-1.8574,-1.8574,-1.8574,0,-1.8549,-1.8562,-1.8551,-1.856,-1.8574,-1.8564,-1.8578,-1.8576,-1.8575,-1.8583,-1.8571,-1.8578,-1.8568,-1.8574,-1.8569,-1.8582,-1.8583,-1.8581,-1.8579,-1.8582,-1.8583,-1.8584,-1.8582,-1.8575,-1.8575,-1.8574,-1.8574,0,-1.8587,-1.858,-1.8594,-1.859,-1.8589,-1.86,-1.8597,-1.8605,-1.86,-1.861,-1.8612,-1.8605,-1.8612,-1.8605,-1.8612,-1.8608,-1.8626,-1.8621,-1.8626,-1.8624,-1.8639,-1.8638,-1.8689,-1.8695,-1.8647,-1.8647,-1.8648,0,-1.861,-1.862,-1.8617,-1.8621,-1.8621,-1.8628,-1.8631,-1.8622,-1.8626,-1.8627,-1.8634,-1.864,-1.8645,-1.8657,-1.8652,-1.8658,-1.8653,-1.867,-1.8654,-1.8656,-1.8653,-1.8653,-1.8654,-1.8674,-1.8674,-1.8675,-1.8675,0,-1.8652,-1.8648,-1.8653,-1.8657,-1.8661,-1.8664,-1.8666,-1.867,-1.866,-1.8665,-1.8672,-1.8675,-1.8682,-1.8689,-1.8692,-1.8692,-1.8682,-1.8681,-1.8684,-1.8687,-1.869,-1.8689,-1.8635,-1.8679,-1.8679,-1.8679,-1.8678,-1.8678,-1.8683,-1.8691,-1.869,-1.8696,-1.8697,-1.8699,-1.8706,-1.8702,-1.8708,-1.8712,-1.8706,-1.8715,-1.8715,-1.8719,-1.872,-1.8726,-1.8719,-1.8724,-1.8726,-1.8727,-1.8729,-1.8688,-1.8727,-1.8727,-1.8727,-1.8727,-1.8727,0,-1.8724,-1.8723,-1.8728,-1.8731,-1.8736,-1.8726,-1.8728,-1.8733,-1.8741,-1.8741,-1.8746,-1.8754,-1.876,-1.8756,-1.8761,-1.8767,-1.8763,-1.8769,-1.8769,-1.8769,-1.8736,-1.8732,-1.8773,-1.8773,-1.8772,-1.8772,-1.8772,-1.8772,-1.8746,-1.8759,-1.8755,-1.8768,-1.8767,-1.8775,-1.8777,-1.8779,-1.8779,-1.8789,-1.8794,-1.8791,-1.879,-1.8795,-1.88,-1.8799,-1.8801,-1.8809,-1.8806,-1.8775,-1.8771,-1.8767,-1.8763,-1.881,-1.881,-1.8839,-1.8839,-1.8839]}]]